When you browse on this site, cookies collect data to enhance your experience and personalize the content and advertising you see.
Visit our Privacy Policy to learn more. By continuing to use the site, you agree to this use of cookies and data.
  • în România
  • Lista ţărilor
  • Pe 7 zile
  • Temperatura apei
  • Hartă satelitară
  • Meteo pe hartă
  • Widget-uri
  • user-avatar
    Intrare

    Meteo pe oră la Ondjiwa

    Astăzi, 22 Martie, Vineri

    Timp Temperatura Precipitaţii Vânt Presiune Umiditate
    00:00 +27°C° 0 mm 2 m/s 666 mmHg 37%
    01:00 +26°C° 0 mm 3 m/s 666 mmHg 39%
    02:00 +26°C° 0 mm 3 m/s 666 mmHg 43%
    03:00 +25°C° 0 mm 3 m/s 666 mmHg 46%
    04:00 +24°C° 0 mm 3 m/s 666 mmHg 49%
    05:00 +24°C° 0 mm 2 m/s 666 mmHg 50%
    06:00 +25°C° 0 mm 2 m/s 667 mmHg 52%
    07:00 +25°C° 0 mm 1 m/s 667 mmHg 53%
    08:00 +27°C° 0 mm 2 m/s 668 mmHg 47%
    09:00 +30°C° 0 mm 3 m/s 669 mmHg 40%
    10:00 +34°C° 0 mm 3 m/s 669 mmHg 34%
    11:00 +36°C° 0 mm 3 m/s 669 mmHg 30%
    12:00 +37°C° 0 mm 3 m/s 669 mmHg 26%
    13:00 +38°C° 0 mm 3 m/s 668 mmHg 22%
    14:00 +37°C° 0 mm 2 m/s 668 mmHg 23%
    15:00 +36°C° 0 mm 1 m/s 667 mmHg 25%
    16:00 +35°C° 0 mm 1 m/s 667 mmHg 26%
    17:00 +33°C° 0 mm 1 m/s 667 mmHg 29%
    18:00 +32°C° 0 mm 2 m/s 667 mmHg 31%
    19:00 +30°C° 0 mm 2 m/s 667 mmHg 33%
    20:00 +29°C° 0 mm 3 m/s 667 mmHg 38%
    21:00 +28°C° 0 mm 4 m/s 668 mmHg 44%
    22:00 +27°C° 0 mm 5 m/s 668 mmHg 50%
    23:00 +26°C° 0 mm 4 m/s 668 mmHg 53%

    Mâine, 23 Martie, Sâmbătă

    Timp Temperatura Precipitaţii Vânt Presiune Umiditate
    00:00 +25°C° 0 mm 3 m/s 668 mmHg 56%
    01:00 +24°C° 0 mm 2 m/s 667 mmHg 59%
    02:00 +24°C° 0 mm 2 m/s 667 mmHg 60%
    03:00 +24°C° 0 mm 2 m/s 667 mmHg 61%
    04:00 +23°C° 0 mm 2 m/s 666 mmHg 62%
    05:00 +24°C° 0 mm 2 m/s 667 mmHg 62%
    06:00 +24°C° 0 mm 2 m/s 667 mmHg 62%
    07:00 +24°C° 0 mm 2 m/s 667 mmHg 62%
    08:00 +27°C° 0 mm 2 m/s 668 mmHg 52%
    09:00 +30°C° 0 mm 2 m/s 669 mmHg 43%
    10:00 +34°C° 0 mm 2 m/s 670 mmHg 33%
    11:00 +36°C° 0 mm 2 m/s 669 mmHg 29%
    12:00 +37°C° 0 mm 1 m/s 669 mmHg 24%
    13:00 +41°C° 0 mm 1 m/s 669 mmHg 20%
    14:00 +39°C° 0 mm 1 m/s 668 mmHg 23%
    15:00 +36°C° 0 mm 1 m/s 667 mmHg 25%
    16:00 +34°C° 0 mm 1 m/s 667 mmHg 28%
    17:00 +33°C° 0.1 mm 1 m/s 667 mmHg 30%
    18:00 +32°C° 0.1 mm 1 m/s 666 mmHg 32%
    19:00 +31°C° 0.1 mm 1 m/s 666 mmHg 34%
    20:00 +30°C° 0 mm 1 m/s 667 mmHg 36%
    21:00 +29°C° 0 mm 1 m/s 667 mmHg 38%
    22:00 +28°C° 0 mm 2 m/s 667 mmHg 41%
    23:00 +27°C° 0 mm 2 m/s 667 mmHg 43%

    Poimâine, 24 Martie, Duminică

    Timp Temperatura Precipitaţii Vânt Presiune Umiditate
    00:00 +26°C° 0 mm 2 m/s 667 mmHg 46%
    01:00 +25°C° 0 mm 2 m/s 666 mmHg 49%
    02:00 +25°C° 0 mm 1 m/s 666 mmHg 51%
    03:00 +24°C° 0 mm 1 m/s 666 mmHg 52%
    04:00 +24°C° 0 mm 1 m/s 666 mmHg 54%
    05:00 +24°C° 0 mm 2 m/s 666 mmHg 54%
    06:00 +24°C° 0 mm 2 m/s 667 mmHg 54%
    07:00 +24°C° 0 mm 3 m/s 667 mmHg 54%
    08:00 +27°C° 0 mm 2 m/s 668 mmHg 46%
    09:00 +30°C° 0 mm 2 m/s 669 mmHg 38%
    10:00 +32°C° 0 mm 2 m/s 669 mmHg 30%
    11:00 +35°C° 0 mm 2 m/s 669 mmHg 26%
    12:00 +37°C° 0 mm 2 m/s 668 mmHg 23%
    13:00 +38°C° 0 mm 2 m/s 668 mmHg 19%
    14:00 +38°C° 0 mm 2 m/s 667 mmHg 21%
    15:00 +37°C° 0 mm 2 m/s 666 mmHg 22%
    16:00 +35°C° 0 mm 1 m/s 666 mmHg 23%
    17:00 +34°C° 0 mm 1 m/s 666 mmHg 26%
    18:00 +32°C° 0 mm 1 m/s 666 mmHg 28%
    19:00 +30°C° 0 mm 1 m/s 666 mmHg 30%
    20:00 +30°C° 0 mm 1 m/s 666 mmHg 30%
    21:00 +29°C° 0 mm 1 m/s 666 mmHg 30%
    22:00 +29°C° 0 mm 1 m/s 667 mmHg 31%
    23:00 +29°C° 0 mm 1 m/s 667 mmHg 32%

    25 Martie, Luni

    Timp Temperatura Precipitaţii Vânt Presiune Umiditate
    00:00 +28°C° 0 mm 2 m/s 666 mmHg 32%
    01:00 +28°C° 0 mm 2 m/s 666 mmHg 33%
    02:00 +27°C° 0 mm 1 m/s 666 mmHg 36%
    03:00 +25°C° 0 mm 1 m/s 665 mmHg 39%
    04:00 +24°C° 0 mm 1 m/s 665 mmHg 42%
    05:00 +25°C° 0 mm 1 m/s 666 mmHg 42%
    06:00 +25°C° 0 mm 1 m/s 666 mmHg 42%
    07:00 +25°C° 0 mm 1 m/s 667 mmHg 41%
    08:00 +28°C° 0 mm 2 m/s 667 mmHg 35%
    09:00 +31°C° 0 mm 2 m/s 668 mmHg 29%
    10:00 +35°C° 0 mm 3 m/s 669 mmHg 23%
    11:00 +37°C° 0 mm 3 m/s 668 mmHg 21%
    12:00 +38°C° 0 mm 3 m/s 667 mmHg 19%
    13:00 +39°C° 0 mm 3 m/s 667 mmHg 17%
    14:00 +38°C° 0 mm 2 m/s 666 mmHg 19%
    15:00 +38°C° 0 mm 2 m/s 666 mmHg 20%
    16:00 +36°C° 0 mm 1 m/s 665 mmHg 21%
    17:00 +34°C° 0 mm 1 m/s 665 mmHg 24%
    18:00 +33°C° 0 mm 1 m/s 665 mmHg 26%
    19:00 +31°C° 0 mm 1 m/s 666 mmHg 28%
    20:00 +31°C° 0 mm 2 m/s 666 mmHg 30%
    21:00 +30°C° 0 mm 2 m/s 667 mmHg 32%
    22:00 +29°C° 0 mm 2 m/s 667 mmHg 33%
    23:00 +28°C° 0 mm 2 m/s 667 mmHg 38%

    26 Martie, Marţi

    Timp Temperatura Precipitaţii Vânt Presiune Umiditate
    00:00 +26°C° 0 mm 1 m/s 667 mmHg 43%
    01:00 +25°C° 0 mm 1 m/s 666 mmHg 48%
    02:00 +24°C° 0 mm 1 m/s 666 mmHg 51%
    03:00 +24°C° 0 mm 1 m/s 666 mmHg 54%
    04:00 +23°C° 0 mm 2 m/s 666 mmHg 57%
    05:00 +24°C° 0 mm 1 m/s 666 mmHg 57%
    06:00 +24°C° 0 mm 1 m/s 667 mmHg 57%
    07:00 +24°C° 0 mm 1 m/s 667 mmHg 57%
    08:00 +27°C° 0 mm 1 m/s 668 mmHg 48%
    09:00 +30°C° 0 mm 1 m/s 668 mmHg 40%
    10:00 +32°C° 0 mm 2 m/s 669 mmHg 31%
    11:00 +34°C° 0 mm 1 m/s 669 mmHg 28%
    12:00 +36°C° 0 mm 1 m/s 668 mmHg 24%
    13:00 +39°C° 0 mm 1 m/s 668 mmHg 21%
    14:00 +37°C° 0 mm 1 m/s 667 mmHg 22%
    15:00 +36°C° 0 mm 1 m/s 666 mmHg 23%
    16:00 +35°C° 0 mm 1 m/s 666 mmHg 25%
    17:00 +34°C° 0.1 mm 2 m/s 666 mmHg 30%
    18:00 +32°C° 0.1 mm 2 m/s 666 mmHg 35%
    19:00 +30°C° 0.1 mm 3 m/s 666 mmHg 40%
    20:00 +28°C° 0.3 mm 3 m/s 666 mmHg 45%
    21:00 +26°C° 0.3 mm 3 m/s 666 mmHg 51%
    22:00 +24°C° 0.3 mm 3 m/s 667 mmHg 56%
    23:00 +24°C° 0.3 mm 3 m/s 666 mmHg 60%

    27 Martie, Miercuri

    Timp Temperatura Precipitaţii Vânt Presiune Umiditate
    00:00 +23°C° 0.3 mm 2 m/s 666 mmHg 64%
    01:00 +21°C° 0.3 mm 2 m/s 666 mmHg 69%
    02:00 +21°C° 0 mm 2 m/s 666 mmHg 71%
    03:00 +21°C° 0 mm 2 m/s 666 mmHg 73%
    04:00 +20°C° 0 mm 2 m/s 666 mmHg 75%
    05:00 +21°C° 0 mm 2 m/s 666 mmHg 75%
    06:00 +21°C° 0 mm 2 m/s 667 mmHg 75%
    07:00 +21°C° 0 mm 2 m/s 667 mmHg 75%
    08:00 +25°C° 0 mm 2 m/s 668 mmHg 63%
    09:00 +28°C° 0 mm 2 m/s 669 mmHg 50%
    10:00 +31°C° 0 mm 2 m/s 669 mmHg 38%
    11:00 +34°C° 0 mm 3 m/s 669 mmHg 33%
    12:00 +35°C° 0 mm 3 m/s 668 mmHg 29%
    13:00 +37°C° 0 mm 3 m/s 668 mmHg 24%
    14:00 +36°C° 0 mm 3 m/s 668 mmHg 26%
    15:00 +35°C° 0 mm 3 m/s 667 mmHg 29%
    16:00 +34°C° 0 mm 3 m/s 667 mmHg 31%
    17:00 +32°C° 0 mm 2 m/s 667 mmHg 34%
    18:00 +30°C° 0 mm 2 m/s 667 mmHg 37%
    19:00 +29°C° 0 mm 1 m/s 667 mmHg 39%
    20:00 +28°C° 0 mm 1 m/s 667 mmHg 40%
    21:00 +28°C° 0 mm 2 m/s 668 mmHg 41%
    22:00 +27°C° 0 mm 2 m/s 668 mmHg 42%
    23:00 +26°C° 0 mm 2 m/s 668 mmHg 46%
    Arată mai mult